Location: 22
(39.7117°N, 89.5929°W)
Time: 22:48:45
(UTC-06:00)

Explorer 7 - All Passes

Search period start: 29 January 2023 00:00
Search period end: 08 February 2023 00:00
Orbit: 480 x 660 km, 50.3° (Epoch: 29 January)

Date Brightness Start Highest point End Pass type
(mag) Time Alt. Az. Time Alt. Az. Time Alt. Az.
29 Jan - 11:40:32 10° SSE 11:42:19 12° SE 11:44:07 10° E daylight
29 Jan - 13:17:44 10° SW 13:21:55 83° SE 13:26:24 10° NE daylight
29 Jan - 14:58:50 10° WNW 15:02:39 29° NNW 15:06:40 10° NE daylight
29 Jan - 16:40:32 10° NW 16:44:05 22° N 16:47:45 10° NE daylight
29 Jan - 18:21:00 10° NW 18:25:23 38° NNE 18:29:52 10° E visible
29 Jan - 20:01:15 10° WNW 20:05:54 55° SW 20:10:36 10° SE visible
30 Jan - 11:40:04 10° S 11:43:04 20° SE 11:46:12 10° E daylight
30 Jan - 13:18:46 10° WSW 13:22:56 68° NNW 13:27:24 10° NE daylight
30 Jan - 15:00:15 10° WNW 15:03:53 25° NNW 15:07:41 10° NE daylight
30 Jan - 16:41:42 10° NW 16:45:21 23° N 16:49:07 10° ENE daylight
30 Jan - 18:21:57 10° NW 18:26:30 49° NNE 18:31:09 10° ESE visible
30 Jan - 20:02:25 10° WNW 20:06:48 37° SW 20:11:13 10° SSE visible
31 Jan - 11:40:17 10° SSW 11:43:52 30° SE 11:47:39 10° ENE daylight
31 Jan - 13:19:56 10° WSW 13:24:00 48° NNW 13:28:20 10° NE daylight
31 Jan - 15:01:39 10° WNW 15:05:08 22° N 15:08:45 10° NE daylight
31 Jan - 16:42:47 10° NW 16:46:35 25° NNE 16:50:31 10° ENE daylight
31 Jan - 18:22:54 10° NW 18:27:34 67° NNE 18:32:20 10° ESE visible
31 Jan - 20:03:46 10° WNW 20:07:38 25° SW 20:11:32 10° S visible
01 Feb - 11:40:50 10° SSW 11:44:42 48° SE 11:48:52 10° ENE daylight
01 Feb - 13:21:12 10° W 13:25:07 36° NNW 13:29:16 10° NE daylight
01 Feb - 15:03:00 10° NW 15:06:23 21° N 15:09:54 10° NE daylight
01 Feb - 16:43:47 10° NW 16:47:47 29° NNE 16:51:56 10° E daylight
01 Feb - 18:23:52 10° NW 18:28:33 88° SW 18:33:22 10° SE visible
01 Feb - 20:05:27 10° W 20:08:25 16° SW 20:11:24 10° SSW visible
02 Feb - 10:05:41 10° SE 10:06:07 10° SE 10:06:32 10° ESE daylight
02 Feb - 11:41:36 10° SW 11:45:37 74° SE 11:49:55 10° ENE daylight
02 Feb - 13:22:33 10° W 13:26:16 29° NNW 13:30:11 10° NE daylight
02 Feb - 15:04:16 10° NW 15:07:38 21° N 15:11:09 10° NE daylight
02 Feb - 16:44:43 10° NW 16:48:56 35° NNE 16:53:18 10° E daylight
02 Feb - 18:24:53 10° WNW 18:29:30 61° SW 18:34:13 10° SE visible
02 Feb - 20:08:32 10° WSW 20:09:08 10° SW 20:09:45 10° SW visible
03 Feb - 10:04:15 10° S 10:06:49 17° SE 10:09:28 10° E daylight
03 Feb - 11:42:33 10° WSW 11:46:35 74° NW 11:50:54 10° NE daylight
03 Feb - 13:23:56 10° WNW 13:27:27 25° NNW 13:31:08 10° NE daylight
03 Feb - 15:05:25 10° NW 15:08:52 22° N 15:12:28 10° ENE daylight
03 Feb - 16:45:38 10° NW 16:50:02 45° NNE 16:54:35 10° E daylight
03 Feb - 18:25:59 10° WNW 18:30:23 41° SW 18:34:52 10° SSE visible
04 Feb - 10:04:15 10° S 10:07:33 26° SE 10:11:02 10° ENE daylight
04 Feb - 11:43:39 10° WSW 11:47:36 51° NNW 11:51:49 10° NE daylight
04 Feb - 13:25:18 10° WNW 13:28:39 22° N 13:32:08 10° NE daylight
04 Feb - 15:06:28 10° NW 15:10:05 24° NNE 15:13:49 10° ENE daylight
04 Feb - 16:46:33 10° NW 16:51:03 60° NNE 16:55:45 10° ESE daylight
04 Feb - 18:27:14 10° WNW 18:31:12 28° SW 18:35:14 10° S visible
05 Feb - 10:04:40 10° SSW 10:08:21 41° SE 10:12:16 10° ENE daylight
05 Feb - 11:44:51 10° W 11:48:39 38° NNW 11:52:42 10° NE daylight
05 Feb - 13:26:38 10° NW 13:29:52 20° N 13:33:13 10° NE daylight
05 Feb - 15:07:26 10° NW 15:11:14 27° NNE 15:15:12 10° ENE daylight
05 Feb - 16:47:27 10° NW 16:52:02 84° NE 16:56:47 10° SE daylight
05 Feb - 18:28:46 10° W 18:31:57 18° SW 18:35:12 10° S visible
06 Feb - 10:05:21 10° SW 10:09:12 65° SE 10:13:20 10° ENE daylight
06 Feb - 11:46:09 10° W 11:49:45 30° NNW 11:53:34 10° NE daylight
06 Feb - 13:27:53 10° NW 13:31:04 20° N 13:34:23 10° NE daylight
06 Feb - 15:08:21 10° NW 15:12:21 32° NNE 15:16:32 10° E daylight
06 Feb - 16:48:25 10° WNW 16:52:57 68° SW 16:57:39 10° SE daylight
06 Feb - 18:31:04 10° WSW 18:32:40 12° SW 18:34:17 10° SSW visible
07 Feb - 08:28:24 10° SSE 08:30:26 14° SE 08:32:32 10° E daylight
07 Feb - 10:06:12 10° WSW 10:10:07 82° NW 10:14:17 10° NE daylight
07 Feb - 11:47:29 10° WNW 11:50:53 25° NNW 11:54:27 10° NE daylight
07 Feb - 13:29:01 10° NW 13:32:16 20° N 13:35:38 10° NE daylight
07 Feb - 15:09:13 10° NW 15:13:26 41° NNE 15:17:49 10° E daylight
07 Feb - 16:49:27 10° WNW 16:53:48 45° SW 16:58:19 10° SSE daylight
